K1VL Weather Reports


Display with metric or nautical units.
time (UTC)temp
F
wind
direction
speed
MPH
gust
MPH
rain 1hr
in
rain 24hr
in
rain mn
in
humidity
%
barometer
mb
20260510060019 47 113 3.0 5.0 0.00 0.21 0.00 96 1010.6
20260510055516 47 113 2.0 4.0 0.00 0.21 0.00 96 1010.7
20260510055056 47 135 2.0 5.0 0.00 0.21 0.00 96 1010.7
20260510054515 47 135 2.0 4.0 0.00 0.21 0.00 97 1010.7
20260510054016 46 135 2.0 3.0 0.00 0.21 0.00 97 1010.7
20260510053515 47 0.0 2.0 0.00 0.21 0.00 96 1010.8
20260510053035 47 0.0 1.0 0.00 0.21 0.00 96 1010.9
20260510052516 47 0.0 1.0 0.00 0.21 0.00 96 1010.8
20260510052036 47 0.0 2.0 0.00 0.21 0.00 96 1010.8
20260510051516 47 90 1.0 4.0 0.00 0.21 0.00 96 1010.8
20260510051016 47 68 1.0 5.0 0.00 0.21 0.00 96 1010.7
20260510050516 47 68 3.0 6.0 0.00 0.21 0.00 96 1010.7
20260510050016 47 113 2.0 5.0 0.00 0.21 0.00 97 1010.6
20260510045516 47 90 3.0 5.0 0.00 0.21 0.00 97 1010.7
20260510045015 47 90 2.0 6.0 0.00 0.21 0.00 96 1010.8
20260510044516 47 90 2.0 5.0 0.00 0.21 0.00 97 1010.9
20260510044016 46 90 2.0 4.0 0.00 0.21 0.00 97 1010.9
20260510043516 46 90 2.0 5.0 0.00 0.21 0.00 97 1011.0
20260510043016 46 113 2.0 5.0 0.00 0.21 0.00 97 1011.1
20260510042536 46 0.0 2.0 0.00 0.21 0.00 97 1011.1
20260510042015 46 0.0 0.0 0.00 0.21 0.00 97 1011.0
20260510041516 46 0.0 1.0 0.00 0.21 0.00 97 1010.9
20260510041016 46 135 1.0 2.0 0.00 0.21 0.00 97 1010.8
20260510040515 46 0.0 2.0 0.00 0.21 0.00 97 1010.6
20260510040016 46 68 1.0 3.0 0.00 0.21 0.21 97 1010.7
20260510035516 46 90 3.0 6.0 0.00 0.21 0.21 97 1010.6
20260510035036 46 90 2.0 7.0 0.00 0.21 0.21 97 1010.8
20260510034516 46 113 1.0 3.0 0.00 0.21 0.21 97 1010.8
20260510034016 46 68 1.0 4.0 0.00 0.21 0.21 97 1010.9
20260510033516 46 135 1.0 5.0 0.00 0.21 0.21 97 1010.9
20260510033016 46 68 1.0 4.0 0.00 0.21 0.21 97 1010.9
20260510032516 46 113 2.0 4.0 0.00 0.21 0.21 97 1011.0
20260510032016 46 68 2.0 7.0 0.00 0.21 0.21 97 1010.8
20260510031516 46 68 3.0 7.0 0.00 0.21 0.21 97 1010.8
20260510031016 46 113 5.0 9.0 0.00 0.21 0.21 97 1010.9
20260510030516 46 90 3.0 8.0 0.00 0.21 0.21 97 1010.9
20260510030016 46 68 4.0 8.0 0.00 0.21 0.21 97 1011.0
20260510025516 46 113 4.0 8.0 0.00 0.21 0.21 98 1011.0
20260510025036 46 113 4.0 10.0 0.00 0.21 0.21 98 1011.0
20260510024516 46 68 1.0 5.0 0.00 0.21 0.21 98 1010.9
20260510024015 46 90 3.0 8.0 0.00 0.21 0.21 98 1011.0
20260510023516 46 90 2.0 4.0 0.00 0.21 0.21 98 1011.0
20260510023016 45 135 2.0 5.0 0.00 0.21 0.21 98 1011.0
20260510022516 45 113 3.0 7.0 0.00 0.21 0.21 98 1011.0
20260510022016 45 90 4.0 13.0 0.00 0.21 0.21 98 1010.8
20260510021516 45 113 5.0 10.0 0.00 0.21 0.21 98 1011.0
20260510021016 45 135 2.0 9.0 0.00 0.21 0.21 98 1010.9
20260510020536 45 113 3.0 7.0 0.00 0.21 0.21 98 1011.1
20260510020016 45 90 3.0 7.0 0.00 0.21 0.21 98 1011.0
20260510015536 45 90 4.0 7.0 0.00 0.21 0.21 97 1010.9
20260510015016 45 135 2.0 4.0 0.00 0.21 0.21 97 1011.1
20260510014516 45 135 2.0 5.0 0.00 0.21 0.21 97 1011.3
20260510014016 45 113 2.0 7.0 0.00 0.21 0.21 97 1011.2
20260510013516 45 113 2.0 6.0 0.00 0.21 0.21 97 1011.2
20260510013016 45 113 2.0 5.0 0.00 0.21 0.21 97 1011.1
20260510012516 45 90 3.0 6.0 0.00 0.21 0.21 97 1011.2
20260510012036 45 113 3.0 6.0 0.00 0.21 0.21 97 1011.3
20260510011515 45 113 3.0 5.0 0.00 0.21 0.21 97 1011.3
20260510011015 45 113 3.0 8.0 0.00 0.21 0.21 97 1011.3
20260510010516 45 135 2.0 7.0 0.00 0.21 0.21 97 1011.2
20260510010016 45 113 2.0 5.0 0.00 0.21 0.21 97 1011.2
20260510005516 45 158 1.0 3.0 0.00 0.21 0.21 97 1011.2
20260510005016 45 90 3.0 6.0 0.00 0.21 0.21 97 1011.1
20260510004516 45 135 2.0 5.0 0.00 0.21 0.21 97 1011.0
20260510004016 45 113 4.0 7.0 0.00 0.21 0.21 97 1010.9
20260510003515 45 90 3.0 6.0 0.00 0.21 0.21 97 1010.9
20260510003016 45 90 3.0 6.0 0.00 0.21 0.21 97 1011.0
20260510002516 45 90 2.0 5.0 0.00 0.21 0.21 97 1011.0
20260510002016 45 68 3.0 7.0 0.00 0.21 0.21 97 1010.9
20260510001516 45 113 4.0 6.0 0.00 0.21 0.21 97 1010.9
20260510001016 45 113 3.0 6.0 0.00 0.21 0.21 97 1010.8
20260510000516 45 113 2.0 4.0 0.00 0.21 0.21 97 1010.8
20260510000016 45 113 3.0 6.0 0.00 0.21 0.21 97 1010.7
20260509235536 45 135 4.0 9.0 0.00 0.21 0.21 96 1010.6
20260509235036 45 135 4.0 7.0 0.00 0.21 0.21 96 1010.6
20260509234515 45 90 4.0 9.0 0.00 0.21 0.21 96 1010.5
20260509234036 45 113 3.0 8.0 0.00 0.21 0.21 96 1010.4
20260509233515 45 113 4.0 7.0 0.00 0.21 0.21 96 1010.4
20260509233016 45 135 3.0 7.0 0.00 0.21 0.21 96 1010.3
20260509232516 45 90 5.0 9.0 0.00 0.21 0.21 96 1010.4
20260509232016 45 135 3.0 5.0 0.00 0.21 0.21 97 1010.4
20260509231516 45 135 3.0 7.0 0.00 0.21 0.21 97 1010.4
20260509231036 45 135 3.0 8.0 0.00 0.21 0.21 97 1010.4
20260509230516 45 113 4.0 8.0 0.00 0.21 0.21 97 1010.3
20260509230016 45 158 2.0 5.0 0.00 0.21 0.21 97 1010.3
20260509225536 45 90 4.0 7.0 0.00 0.21 0.21 97 1010.3
20260509225016 45 113 4.0 7.0 0.00 0.21 0.21 97 1010.4
20260509224516 44 113 3.0 7.0 0.00 0.21 0.21 97 1010.5
20260509224016 44 135 4.0 7.0 0.00 0.21 0.21 97 1010.5
20260509223516 44 113 3.0 5.0 0.00 0.21 0.21 97 1010.5
20260509223016 44 135 2.0 5.0 0.00 0.21 0.21 97 1010.5
20260509222516 44 113 3.0 6.0 0.00 0.21 0.21 97 1010.6
20260509222016 44 135 3.0 6.0 0.00 0.21 0.21 97 1010.6
20260509221536 44 113 3.0 7.0 0.00 0.21 0.21 97 1010.7
20260509221016 44 135 2.0 5.0 0.00 0.21 0.21 97 1010.7
20260509220516 44 135 3.0 7.0 0.00 0.21 0.21 97 1010.8
20260509220016 44 135 3.0 7.0 0.00 0.21 0.21 97 1010.8
20260509215516 44 135 3.0 8.0 0.00 0.21 0.21 97 1010.6
20260509215015 44 68 3.0 7.0 0.00 0.21 0.21 97 1010.6
20260509214516 44 135 3.0 6.0 0.00 0.21 0.21 97 1010.7
20260509214016 44 90 2.0 6.0 0.00 0.21 0.21 97 1010.8
20260509213536 44 113 2.0 8.0 0.00 0.21 0.21 97 1010.9
20260509213036 44 135 3.0 5.0 0.00 0.21 0.21 97 1010.9
20260509212516 44 113 2.0 6.0 0.00 0.21 0.21 97 1011.0
20260509212016 44 135 2.0 4.0 0.00 0.21 0.21 96 1011.0
20260509211516 44 90 4.0 10.0 0.01 0.21 0.21 96 1011.0
20260509211016 44 113 3.0 6.0 0.01 0.21 0.21 96 1011.1
20260509210516 44 113 3.0 6.0 0.01 0.21 0.21 96 1011.1
20260509210016 44 135 2.0 7.0 0.01 0.21 0.21 96 1011.1
20260509205516 44 135 3.0 6.0 0.01 0.21 0.21 96 1011.1
20260509205016 44 135 3.0 6.0 0.02 0.21 0.21 96 1011.1
20260509204516 44 135 2.0 4.0 0.02 0.21 0.21 96 1011.2
20260509204016 44 135 2.0 5.0 0.02 0.21 0.21 97 1011.1
20260509203516 44 135 2.0 6.0 0.02 0.21 0.21 96 1011.1
20260509203016 44 113 3.0 8.0 0.03 0.21 0.21 96 1011.1
20260509202536 44 68 3.0 5.0 0.03 0.21 0.21 96 1011.1
20260509202016 44 113 2.0 6.0 0.03 0.21 0.21 96 1011.3
20260509201516 44 135 3.0 8.0 0.02 0.20 0.20 97 1011.3
20260509201036 44 90 4.0 7.0 0.03 0.20 0.20 97 1011.3
20260509200516 44 113 4.0 10.0 0.03 0.20 0.20 97 1011.3
20260509200016 44 135 2.0 6.0 0.04 0.20 0.20 97 1011.3
20260509195516 44 113 3.0 6.0 0.04 0.20 0.20 97 1011.3
20260509195016 44 90 4.0 9.0 0.03 0.19 0.19 97 1011.3
20260509194516 43 135 3.0 8.0 0.03 0.19 0.19 97 1011.3
20260509194016 43 113 4.0 9.0 0.03 0.19 0.19 97 1011.4
20260509193516 43 113 4.0 8.0 0.04 0.19 0.19 97 1011.4
20260509193036 43 113 4.0 8.0 0.03 0.18 0.18 97 1011.4
20260509192516 43 113 4.0 9.0 0.03 0.18 0.18 96 1011.5
20260509192016 43 135 3.0 8.0 0.04 0.18 0.18 97 1011.5
20260509191516 43 113 3.0 7.0 0.04 0.18 0.18 97 1011.5
20260509191015 43 113 4.0 9.0 0.03 0.17 0.17 97 1011.6
20260509190515 43 113 4.0 9.0 0.03 0.17 0.17 97 1011.5
20260509190016 43 113 4.0 8.0 0.03 0.16 0.16 97 1011.6
20260509185516 43 90 4.0 10.0 0.03 0.16 0.16 97 1011.6
20260509185016 43 135 4.0 10.0 0.03 0.16 0.16 96 1011.6
20260509184516 43 113 4.0 10.0 0.03 0.16 0.16 96 1011.7
20260509184016 43 135 5.0 14.0 0.03 0.16 0.16 96 1011.7
20260509183516 43 113 4.0 8.0 0.03 0.15 0.15 96 1011.7
20260509183016 43 113 4.0 7.0 0.03 0.15 0.15 96 1011.7
20260509182516 43 135 3.0 8.0 0.03 0.15 0.15 96 1011.8
20260509182016 43 90 3.0 8.0 0.02 0.14 0.14 96 1011.9
20260509181516 43 68 3.0 9.0 0.02 0.14 0.14 96 1011.9
20260509181016 43 90 4.0 11.0 0.02 0.14 0.14 96 1011.9
20260509180516 43 113 5.0 10.0 0.03 0.14 0.14 96 1011.8
20260509180016 43 135 5.0 10.0 0.02 0.13 0.13 96 1011.8
20260509175516 43 113 5.0 10.0 0.02 0.13 0.13 95 1011.9
20260509175036 43 135 3.0 7.0 0.02 0.13 0.13 96 1011.9
20260509174516 43 135 4.0 9.0 0.02 0.13 0.13 95 1011.9
20260509174016 43 135 3.0 7.0 0.03 0.13 0.13 96 1011.9
20260509173516 43 135 5.0 11.0 0.02 0.12 0.12 96 1012.0
20260509173016 44 90 5.0 10.0 0.03 0.12 0.12 95 1012.0
20260509172516 44 113 3.0 8.0 0.03 0.12 0.12 96 1012.0
20260509172016 44 135 4.0 7.0 0.04 0.12 0.12 96 1012.1
20260509171516 44 113 4.0 12.0 0.04 0.12 0.12 96 1012.1
20260509171016 44 90 5.0 9.0 0.05 0.12 0.12 96 1012.1
20260509170536 43 135 4.0 8.0 0.04 0.11 0.11 96 1012.3
20260509170016 43 135 3.0 8.0 0.05 0.11 0.11 96 1012.4
20260509165516 43 90 4.0 9.0 0.06 0.11 0.11 96 1012.5
20260509165016 43 135 3.0 6.0 0.06 0.11 0.11 96 1012.5
20260509164516 43 113 4.0 9.0 0.07 0.11 0.11 96 1012.5
20260509164016 43 68 4.0 13.0 0.06 0.10 0.10 96 1012.6
20260509163516 43 113 3.0 7.0 0.07 0.10 0.10 96 1012.6
20260509163016 43 135 4.0 7.0 0.06 0.09 0.09 96 1012.7
20260509162536 43 90 3.0 7.0 0.06 0.09 0.09 95 1012.8
20260509162036 43 90 4.0 7.0 0.05 0.08 0.08 95 1012.8
20260509161516 43 68 4.0 8.0 0.05 0.08 0.08 95 1012.9
20260509161036 43 90 5.0 9.0 0.04 0.07 0.07 94 1012.9
20260509160516 43 135 3.0 6.0 0.05 0.07 0.07 94 1012.9
20260509160016 43 90 6.0 11.0 0.05 0.06 0.06 94 1013.0
20260509155516 43 90 4.0 8.0 0.04 0.05 0.05 94 1013.0
20260509155016 43 135 3.0 7.0 0.04 0.05 0.05 94 1013.1
20260509154516 43 113 4.0 7.0 0.03 0.04 0.04 94 1013.2
20260509154016 43 90 4.0 7.0 0.03 0.04 0.04 93 1013.3
20260509153516 43 135 3.0 8.0 0.03 0.03 0.03 93 1013.3
20260509153016 43 113 3.0 6.0 0.03 0.03 0.03 92 1013.4
20260509152516 43 90 3.0 7.0 0.03 0.03 0.03 92 1013.4
20260509152016 43 113 3.0 7.0 0.03 0.03 0.03 91 1013.4
20260509151516 43 135 1.0 4.0 0.03 0.03 0.03 91 1013.4
20260509151016 43 135 1.0 3.0 0.03 0.03 0.03 90 1013.4
20260509150516 43 158 2.0 8.0 0.02 0.02 0.02 89 1013.5
20260509150016 43 90 3.0 7.0 0.01 0.01 0.01 88 1013.5
20260509145536 43 90 3.0 4.0 0.01 0.01 0.01 86 1013.5
20260509145036 43 113 2.0 3.0 0.01 0.01 0.01 86 1013.5
20260509144516 43 135 2.0 4.0 0.01 0.01 0.01 84 1013.5
20260509144036 44 135 3.0 5.0 0.01 0.01 0.01 83 1013.5
20260509143516 44 135 4.0 8.0 0.00 0.00 0.00 81 1013.4
20260509143016 45 113 3.0 7.0 0.00 0.00 0.00 79 1013.3
20260509142536 45 135 3.0 8.0 0.00 0.00 0.00 79 1013.2
20260509142036 45 113 2.0 5.0 0.00 0.00 0.00 77 1013.2
20260509141516 45 90 3.0 5.0 0.00 0.00 0.00 75 1013.1
20260509141016 46 158 2.0 7.0 0.00 0.00 0.00 73 1013.2
20260509140516 46 135 2.0 4.0 0.00 0.00 0.00 73 1013.2
20260509140016 46 113 2.0 6.0 0.00 0.00 0.00 72 1013.3
20260509135516 46 135 3.0 5.0 0.00 0.00 0.00 71 1013.2
20260509135016 46 158 2.0 4.0 0.00 0.00 0.00 72 1013.1
20260509134516 46 113 2.0 6.0 0.00 0.00 0.00 71 1013.1
20260509134016 46 90 5.0 10.0 0.00 0.00 0.00 70 1013.0
20260509133537 46 203 4.0 9.0 0.00 0.00 0.00 70 1013.0
20260509133016 46 180 4.0 9.0 0.00 0.00 0.00 71 1013.0
20260509132516 46 158 4.0 12.0 0.00 0.00 0.00 72 1013.0
20260509132016 47 113 5.0 13.0 0.00 0.00 0.00 72 1013.2
20260509131516 47 90 3.0 8.0 0.00 0.00 0.00 70 1013.1
20260509131016 47 158 4.0 8.0 0.00 0.00 0.00 69 1013.1
20260509130516 46 203 5.0 9.0 0.00 0.00 0.00 70 1013.1
20260509130016 46 135 4.0 7.0 0.00 0.00 0.00 69 1013.1
20260509125517 46 135 5.0 13.0 0.00 0.00 0.00 70 1013.2
20260509125016 46 135 5.0 10.0 0.00 0.00 0.00 67 1013.3
20260509124516 46 135 5.0 13.0 0.00 0.00 0.00 67 1013.3
20260509124016 46 90 3.0 9.0 0.00 0.00 0.00 65 1013.2
20260509123516 46 158 2.0 5.0 0.00 0.00 0.00 64 1013.3
20260509123016 46 135 4.0 8.0 0.00 0.00 0.00 64 1013.4
20260509122516 46 158 4.0 9.0 0.00 0.00 0.00 63 1013.4
20260509122016 46 158 3.0 7.0 0.00 0.00 0.00 63 1013.5
20260509121516 46 113 2.0 8.0 0.00 0.00 0.00 64 1013.4
20260509121016 46 135 3.0 7.0 0.00 0.00 0.00 64 1013.4
20260509120516 45 135 3.0 7.0 0.00 0.00 0.00 66 1013.5
20260509120016 45 68 4.0 7.0 0.00 0.00 0.00 63 1013.5
20260509115516 45 135 2.0 5.0 0.00 0.00 0.00 64 1013.5
20260509115016 44 135 3.0 7.0 0.00 0.00 0.00 63 1013.5
20260509114516 44 90 3.0 8.0 0.00 0.00 0.00 63 1013.5
20260509114016 43 90 3.0 7.0 0.00 0.00 0.00 65 1013.5
20260509113516 42 135 1.0 4.0 0.00 0.00 0.00 68 1013.6
20260509113057 41 0.0 1.0 0.00 0.00 0.00 67 1013.6
20260509112516 40 135 1.0 3.0 0.00 0.00 0.00 71 1013.6
20260509112016 40 0.0 0.0 0.00 0.00 0.00 73 1013.6
20260509111516 40 0.0 3.0 0.00 0.00 0.00 75 1013.6
20260509111016 39 113 1.0 3.0 0.00 0.00 0.00 71 1013.6
20260509110516 39 113 1.0 5.0 0.00 0.00 0.00 75 1013.7
20260509110016 38 113 2.0 5.0 0.00 0.00 0.00 74 1013.7
20260509105516 37 90 1.0 4.0 0.00 0.00 0.00 78 1013.7
20260509105016 36 113 1.0 3.0 0.00 0.00 0.00 84 1013.7
20260509104516 34 113 1.0 6.0 0.00 0.00 0.00 87 1013.7
20260509104016 33 0.0 1.0 0.00 0.00 0.00 95 1013.6
20260509103536 31 0.0 2.0 0.00 0.00 0.00 98 1013.6
20260509103016 30 0.0 1.0 0.00 0.00 0.00 98 1013.5
20260509102516 29 0.0 0.0 0.00 0.00 0.00 98 1013.5
20260509102016 29 0.0 0.0 0.00 0.00 0.00 98 1013.5
20260509101516 29 0.0 0.0 0.00 0.00 0.00 98 1013.5
20260509101036 28 0.0 0.0 0.00 0.00 0.00 98 1013.6
20260509100529 28 0.0 1.0 0.00 0.00 0.00 97 1013.6
20260509100016 28 0.0 0.0 0.00 0.00 0.00 97 1013.6
20260509095516 28 0.0 0.0 0.00 0.00 0.00 97 1013.6
20260509095016 27 0.0 1.0 0.00 0.00 0.00 97 1013.6
20260509094516 27 0.0 0.0 0.00 0.00 0.00 97 1013.5
20260509094016 27 0.0 0.0 0.00 0.00 0.00 97 1013.4
20260509093516 27 0.0 1.0 0.00 0.00 0.00 97 1013.4
20260509093036 27 0.0 0.0 0.00 0.00 0.00 97 1013.3
20260509092516 28 0.0 0.0 0.00 0.00 0.00 97 1013.3
20260509092016 27 0.0 1.0 0.00 0.00 0.00 97 1013.3
20260509091516 27 0.0 0.0 0.00 0.00 0.00 97 1013.3
20260509091016 27 0.0 0.0 0.00 0.00 0.00 97 1013.3
20260509090536 27 0.0 0.0 0.00 0.00 0.00 96 1013.4
20260509090016 28 0.0 0.0 0.00 0.00 0.00 97 1013.4
20260509085516 28 0.0 0.0 0.00 0.00 0.00 97 1013.3
20260509085016 27 0.0 0.0 0.00 0.00 0.00 97 1013.3
20260509084516 27 0.0 0.0 0.00 0.00 0.00 97 1013.2
20260509084016 27 0.0 0.0 0.00 0.00 0.00 97 1013.1
20260509083536 28 0.0 0.0 0.00 0.00 0.00 96 1013.1
20260509083016 28 0.0 0.0 0.00 0.00 0.00 96 1013.1
20260509082516 28 0.0 0.0 0.00 0.00 0.00 96 1013.1
20260509082016 28 0.0 0.0 0.00 0.00 0.00 96 1013.0
20260509081516 28 0.0 0.0 0.00 0.00 0.00 96 1013.1
20260509081016 28 0.0 0.0 0.00 0.00 0.00 96 1013.1
20260509080536 28 0.0 1.0 0.00 0.00 0.00 96 1013.0
20260509080016 28 0.0 0.0 0.00 0.00 0.00 96 1013.0
20260509075516 28 0.0 0.0 0.00 0.00 0.00 96 1012.9
20260509075016 28 0.0 0.0 0.00 0.00 0.00 96 1012.8
20260509074536 28 0.0 1.0 0.00 0.00 0.00 96 1012.8
20260509074036 28 0.0 1.0 0.00 0.00 0.00 96 1012.9
20260509073516 28 0.0 1.0 0.00 0.00 0.00 96 1012.9
20260509073040 28 0.0 1.0 0.00 0.00 0.00 96 1013.0
20260509072516 28 0.0 1.0 0.00 0.00 0.00 96 1013.0
20260509072016 28 0.0 1.0 0.00 0.00 0.00 96 1013.1
20260509071536 28 0.0 1.0 0.00 0.00 0.00 96 1013.2
20260509071036 28 0.0 0.0 0.00 0.00 0.00 96 1013.3
20260509070516 28 0.0 0.0 0.00 0.00 0.00 96 1013.3
20260509070016 28 0.0 0.0 0.00 0.00 0.00 96 1013.4
20260509065516 28 0.0 1.0 0.00 0.00 0.00 96 1013.4
20260509065016 28 0.0 0.0 0.00 0.00 0.00 96 1013.4
20260509064516 28 0.0 0.0 0.00 0.00 0.00 96 1013.5
20260509064017 28 0.0 1.0 0.00 0.00 0.00 96 1013.5
20260509063516 28 0.0 0.0 0.00 0.00 0.00 95 1013.6
20260509063036 28 0.0 0.0 0.00 0.00 0.00 95 1013.6
20260509062516 28 0.0 0.0 0.00 0.00 0.00 95 1013.6
20260509062016 28 0.0 0.0 0.00 0.00 0.00 95 1013.6
20260509061516 28 0.0 0.0 0.00 0.00 0.00 95 1013.6
20260509061036 28 0.0 1.0 0.00 0.00 0.00 95 1013.6
20260509060520 28 0.0 1.0 0.00 0.00 0.00 95 1013.6